Track LEMUR 2 ROBMOORE now! 10-day predictions LEMUR 2 ROBMOORE is classified as:
1 42754U 17019D 21060.14244456 .00003086 00000-0 10745-3 0 9996 2 42754 51.6404 16.8805 0009325 149.6738 210.4785 15.32816375208412